This is the latest recevied weather packets stored in our database for station/object K8JCL-13. If no packets are shown the sender has not sent any weather packets the latest 10 day(s).
| Time | Temp. | Humidity | Pressure | Rain* | Wind** | Luminosity | Snow |
|---|---|---|---|---|---|---|---|
| 1777614494 | 8.33° C | 74% | 1014.5 hPa | 0 mm | - | 0 W/m² | - |
| 1777614190 | 8.33° C | 75% | 1014.3 hPa | 0 mm | - | 0 W/m² | - |
| 1777613884 | 7.78° C | 75% | 1014.6 hPa | 0 mm | - | 0 W/m² | - |
| 1777613582 | 7.78° C | 76% | 1014.4 hPa | 0 mm | - | 0 W/m² | - |
| 1777613279 | 7.78° C | 77% | 1014.6 hPa | 0 mm | - | 0 W/m² | - |
| 1777612976 | 7.78° C | 77% | 1014.5 hPa | 0 mm | - | 0 W/m² | - |
| 1777612671 | 7.78° C | 76% | 1014.6 hPa | 0 mm | - | 0 W/m² | - |
| 1777612367 | 8.33° C | 76% | 1014.8 hPa | 0 mm | - | 0 W/m² | - |
| 1777612062 | 8.33° C | 75% | 1014.8 hPa | 0 mm | - | 0 W/m² | - |
| 1777611757 | 8.33° C | 77% | 1014.8 hPa | 0 mm | - | 0 W/m² | - |
| 1777611455 | 7.78° C | 77% | 1014.8 hPa | 0 mm | - | 0 W/m² | - |
| 1777611151 | 7.78° C | 80% | 1014.9 hPa | 0 mm | - | 0 W/m² | - |
| 1777610846 | 7.22° C | 78% | 1015 hPa | 0 mm | - | 0 W/m² | - |
| 1777610542 | 7.22° C | 79% | 1015 hPa | 0 mm | - | 0 W/m² | - |
| 1777610237 | 7.22° C | 78% | 1015.1 hPa | 0 mm | - | 0 W/m² | - |
| 1777609935 | 7.22° C | 79% | 1015.1 hPa | 0 mm | - | 0 W/m² | - |
| 1777609631 | 7.78° C | 78% | 1015.3 hPa | 0 mm | - | 0 W/m² | - |
| 1777609328 | 7.78° C | 79% | 1015.2 hPa | 0 mm | - | 0 W/m² | - |
| 1777609025 | 7.22° C | 77% | 1015 hPa | 0 mm | - | 0 W/m² | - |
| 1777608723 | 7.78° C | 78% | 1015.2 hPa | 0 mm | - | 0 W/m² | - |
| 1777608419 | 7.78° C | 77% | 1015.1 hPa | 0 mm | - | 0 W/m² | - |
| 1777608117 | 7.78° C | 77% | 1015.2 hPa | 0 mm | - | 0 W/m² | - |
| 1777607813 | 7.78° C | 76% | 1015.2 hPa | 0 mm | - | 0 W/m² | - |
| 1777607510 | 7.78° C | 76% | 1015.2 hPa | 0 mm | - | 0 W/m² | - |
| 1777607206 | 7.78° C | 78% | 1015.3 hPa | 0 mm | - | 0 W/m² | - |
* Rain latest hour (hover to see other rain measurements)
** Current wind speed in m/s (hover to see current wind gust speed)